Las Vegas, NM

2:29 AM MST on February 11, 2016 (GMT -0700)
Las Vegas Municipal

Weather History for KLVS - December, 2012

Change the Weather History Date:

Sunday, December 30, 2012

  Actual Average (WUND) Record (WUND)
Temperature  
Mean Temperature 29 °F -  
Max Temperature 39 °F - - (-1)
Min Temperature 19 °F - - (-1)
Degree Days  
Heating Degree Days 36    
Moisture  
Dew Point 12 °F    
Average Humidity 49    
Maximum Humidity 65    
Minimum Humidity 35    
Precipitation  
Precipitation 0.00 in - - ()
Sea Level Pressure  
Sea Level Pressure 29.95 in    
Wind  
Wind Speed 14 mph (South)    
Max Wind Speed 20 mph    
Max Gust Speed 26 mph    
Visibility 10 miles    
Events      
Averages and records for this station are not official NWS values.
T = Trace of Precipitation, MM = Missing Value Source: NWS Daily Summary

Daily Weather History Graph

Daily Weather History Graph

Search for Another Location

Airport or City:

Trip Planner

Search our weather history database for the weather conditions in past years. The results will help you decide how hot, cold, wet, or windy it might be!

Date:

Astronomy

Dec. 30, 2012 Rise Set
Actual Time 7:09 AM MST 4:56 PM MST
Civil Twilight 6:41 AM MST 5:25 PM MST
Nautical Twilight 6:09 AM MST 5:57 PM MST
Astronomical Twilight 5:38 AM MST 6:28 PM MST
Moon 7:25 PM MST (12/30) 8:25 AM MST (12/30)
Length of Visible Light 10h 43m
Length of Day
9h 47m
Waning Gibbous, 95% of the Moon is Illuminated
Dec 30
Waning Gibbous
Jan 4
Last Quarter
Jan 11
New
Jan 18
First Quarter
Jan 26
Full

Hourly Weather History & Observations

Time (MST) Temp. Windchill Dew Point Humidity Pressure Visibility Wind Dir Wind Speed Gust Speed Precip Events Conditions
12:53 AM 19.9 °F 5.2 °F 10.0 °F 65% 30.06 in 10.0 mi South 17.3 mph - N/A   Clear
1:53 AM 19.0 °F 6.1 °F 8.1 °F 62% 30.06 in 10.0 mi South 12.7 mph - N/A   Partly Cloudy
2:53 AM 23.0 °F 10.1 °F 8.1 °F 53% 30.02 in 10.0 mi South 15.0 mph - N/A   Overcast
3:53 AM 23.0 °F 11.1 °F 8.1 °F 53% 30.02 in 10.0 mi South 12.7 mph - N/A   Scattered Clouds
4:53 AM 26.1 °F 14.5 °F 9.0 °F 49% 30.01 in 10.0 mi South 13.8 mph - N/A   Clear
5:53 AM 26.1 °F 14.0 °F 9.0 °F 49% 30.03 in 10.0 mi South 15.0 mph - N/A   Scattered Clouds
6:53 AM 28.0 °F 15.7 °F 9.0 °F 45% 30.04 in 10.0 mi South 17.3 mph - N/A   Partly Cloudy
7:53 AM 30.0 °F 20.0 °F 10.0 °F 43% 30.03 in 10.0 mi South 12.7 mph - N/A   Mostly Cloudy
8:53 AM 32.0 °F 20.8 °F 10.9 °F 42% 30.01 in 10.0 mi South 17.3 mph - N/A   Mostly Cloudy
9:53 AM 35.1 °F 24.8 °F 12.0 °F 39% 30.01 in 10.0 mi South 17.3 mph - N/A   Overcast
10:53 AM 36.0 °F 26.3 °F 12.0 °F 37% 30.01 in 10.0 mi South 16.1 mph - N/A   Overcast
11:53 AM 36.0 °F 25.6 °F 12.0 °F 37% 29.99 in 10.0 mi SSW 18.4 mph 26.5 mph N/A   Mostly Cloudy
12:53 PM 37.0 °F 29.8 °F 12.0 °F 36% 29.93 in 10.0 mi South 10.4 mph - N/A   Overcast
1:53 PM 39.9 °F 30.5 °F 14.0 °F 35% 29.91 in 10.0 mi SW 19.6 mph - N/A   Overcast
2:53 PM 39.0 °F 29.9 °F 14.0 °F 36% 29.89 in 10.0 mi SSW 17.3 mph - N/A   Overcast
3:53 PM 37.0 °F 29.3 °F 15.1 °F 41% 29.88 in 10.0 mi SSW 11.5 mph - N/A   Mostly Cloudy
4:53 PM 34.0 °F 26.0 °F 14.0 °F 44% 29.87 in 10.0 mi South 10.4 mph - N/A   Overcast
5:53 PM 30.0 °F 20.5 °F 14.0 °F 51% 29.88 in 10.0 mi South 11.5 mph - N/A   Overcast
6:53 PM 30.0 °F 21.7 °F 14.0 °F 51% 29.88 in 10.0 mi South 9.2 mph - N/A   Overcast
7:53 PM 28.9 °F 22.8 °F 15.1 °F 56% 29.88 in 10.0 mi SSW 5.8 mph - N/A   Overcast
8:53 PM 28.9 °F 18.2 °F 16.0 °F 58% 29.88 in 10.0 mi South 13.8 mph - 0.00 in   Overcast
9:53 PM 25.0 °F 17.1 °F 14.0 °F 63% 29.88 in 10.0 mi South 6.9 mph - N/A   Overcast
10:53 PM 26.1 °F 17.6 °F 14.0 °F 60% 29.84 in 10.0 mi SW 8.1 mph - N/A   Overcast
11:53 PM 25.0 °F 20.7 °F 14.0 °F 63% 29.81 in 10.0 mi South 3.5 mph - N/A   Overcast